| time (UTC) | temp C | wind direction | speed KPH | gust KPH | rain 1hr cm | rain 24hr cm | rain mn cm | humidity % | barometer mb |
| 20260906123013 | 21 | 115 | 0.0 | 1.6 | 0.00 | 0.00 | 0.00 | 92 | 1017.5 |
| 20260906122511 | 21 | 96 | 0.0 | 3.2 | 0.00 | 0.00 | 0.00 | 92 | 1017.5 |
| 20260906122009 | 21 | 102 | 0.0 | 3.2 | 0.00 | 0.00 | 0.00 | 92 | 1017.3 |
| 20260906121008 | 21 | 100 | 0.0 | 1.6 | 0.00 | 0.00 | 0.00 | 92 | 1017.2 |
| 20260906120510 | 21 | 86 | 0.0 | 0.0 | 0.00 | 0.00 | 0.00 | 92 | 1017.1 |
| 20260906120007 | 21 | 86 | 0.0 | 3.2 | 0.00 | 0.00 | 0.00 | 92 | 1016.9 |
| 20260906115506 | 21 | 92 | 0.0 | 1.6 | 0.00 | 0.00 | 0.00 | 92 | 1016.9 |
| 20260906115005 | 21 | 96 | 0.0 | 0.0 | 0.00 | 0.00 | 0.00 | 92 | 1016.8 |
| 20260906114504 | 21 | 95 | 0.0 | 0.0 | 0.00 | 0.00 | 0.00 | 92 | 1016.7 |
| 20260906114007 | 21 | 91 | 0.0 | 1.6 | 0.00 | 0.00 | 0.00 | 92 | 1016.6 |
| 20260906113503 | 21 | 91 | 0.0 | 1.6 | 0.00 | 0.00 | 0.00 | 92 | 1016.6 |
| 20260906113003 | 21 | 89 | 0.0 | 1.6 | 0.00 | 0.00 | 0.00 | 92 | 1016.5 |
| 20260906112503 | 21 | 96 | 0.0 | 1.6 | 0.00 | 0.00 | 0.00 | 92 | 1016.3 |
| 20260906112002 | 21 | 103 | 0.0 | 1.6 | 0.00 | 0.00 | 0.00 | 92 | 1016.2 |
| 20260906111002 | 21 | 94 | 0.0 | 0.0 | 0.00 | 0.00 | 0.00 | 92 | 1016.3 |
| 20260906110501 | 21 | 94 | 0.0 | 0.0 | 0.00 | 0.00 | 0.00 | 92 | 1016.3 |
| 20260906110002 | 21 | 94 | 0.0 | 0.0 | 0.00 | 0.00 | 0.00 | 92 | 1016.3 |
| 20260906105603 | 21 | 94 | 0.0 | 0.0 | 0.00 | 0.00 | 0.00 | 91 | 1016.2 |
| 20260906105101 | 21 | 94 | 0.0 | 0.0 | 0.00 | 0.00 | 0.00 | 91 | 1016.1 |
| 20260906104621 | 21 | 94 | 0.0 | 0.0 | 0.00 | 0.00 | 0.00 | 91 | 1016.1 |
| 20260906104059 | 21 | 94 | 0.0 | 0.0 | 0.00 | 0.00 | 0.00 | 91 | 1016.0 |
| 20260906103558 | 21 | 94 | 0.0 | 1.6 | 0.00 | 0.00 | 0.00 | 91 | 1016.0 |
| 20260906103059 | 21 | 92 | 0.0 | 0.0 | 0.00 | 0.00 | 0.00 | 91 | 1015.9 |
| 20260906102558 | 21 | 92 | 0.0 | 4.8 | 0.00 | 0.00 | 0.00 | 91 | 1015.8 |
| 20260906102058 | 21 | 92 | 0.0 | 4.8 | 0.00 | 0.00 | 0.00 | 91 | 1015.7 |
| 20260906101100 | 21 | 93 | 0.0 | 0.0 | 0.00 | 0.00 | 0.00 | 91 | 1015.7 |
| 20260906100600 | 21 | 93 | 0.0 | 3.2 | 0.00 | 0.00 | 0.00 | 91 | 1015.5 |
| 20260906100059 | 21 | 93 | 0.0 | 3.2 | 0.00 | 0.00 | 0.00 | 91 | 1015.5 |
| 20260906095559 | 21 | 106 | 0.0 | 1.6 | 0.00 | 0.00 | 0.00 | 91 | 1015.6 |
| 20260906095059 | 21 | 106 | 0.0 | 1.6 | 0.00 | 0.00 | 0.00 | 91 | 1015.5 |
| 20260906094639 | 21 | 105 | 0.0 | 3.2 | 0.00 | 0.00 | 0.00 | 91 | 1015.6 |
| 20260906094058 | 21 | 105 | 0.0 | 3.2 | 0.00 | 0.00 | 0.00 | 91 | 1015.5 |
| 20260906093558 | 21 | 80 | 0.0 | 1.6 | 0.00 | 0.00 | 0.00 | 91 | 1015.6 |
| 20260906093106 | 21 | 79 | 0.0 | 1.6 | 0.00 | 0.00 | 0.00 | 91 | 1015.6 |
| 20260906092558 | 21 | 122 | 0.0 | 0.0 | 0.00 | 0.00 | 0.00 | 91 | 1015.5 |
| 20260906092058 | 21 | 122 | 0.0 | 0.0 | 0.00 | 0.00 | 0.00 | 91 | 1015.5 |
| 20260906091057 | 21 | 261 | 0.0 | 0.0 | 0.00 | 0.00 | 0.00 | 92 | 1015.6 |
| 20260906090556 | 21 | 261 | 0.0 | 0.0 | 0.00 | 0.00 | 0.00 | 92 | 1015.5 |
| 20260906090057 | 21 | 261 | 0.0 | 0.0 | 0.00 | 0.00 | 0.00 | 92 | 1015.5 |
| 20260906085556 | 21 | 261 | 0.0 | 0.0 | 0.00 | 0.00 | 0.00 | 92 | 1015.6 |
| 20260906085056 | 21 | 261 | 0.0 | 0.0 | 0.00 | 0.00 | 0.00 | 92 | 1015.7 |
| 20260906084556 | 21 | 261 | 0.0 | 0.0 | 0.00 | 0.00 | 0.00 | 92 | 1015.7 |
| 20260906084058 | 21 | 261 | 0.0 | 0.0 | 0.00 | 0.00 | 0.00 | 92 | 1015.7 |
| 20260906083555 | 21 | 261 | 0.0 | 0.0 | 0.00 | 0.00 | 0.00 | 92 | 1015.7 |
| 20260906083055 | 20 | 261 | 0.0 | 0.0 | 0.00 | 0.00 | 0.00 | 92 | 1015.7 |
| 20260906082554 | 20 | 261 | 0.0 | 1.6 | 0.00 | 0.00 | 0.00 | 92 | 1015.7 |
| 20260906082054 | 20 | 261 | 0.0 | 1.6 | 0.00 | 0.00 | 0.00 | 92 | 1015.7 |
| 20260906081055 | 20 | 99 | 0.0 | 0.0 | 0.00 | 0.00 | 0.00 | 92 | 1015.8 |
| 20260906080555 | 20 | 100 | 0.0 | 0.0 | 0.00 | 0.00 | 0.00 | 92 | 1015.7 |
| 20260906080056 | 20 | 100 | 0.0 | 0.0 | 0.00 | 0.00 | 0.00 | 92 | 1015.8 |
| 20260906075554 | 20 | 100 | 0.0 | 0.0 | 0.00 | 0.00 | 0.00 | 92 | 1015.7 |
| 20260906075057 | 20 | 100 | 0.0 | 0.0 | 0.00 | 0.00 | 0.00 | 92 | 1015.7 |
| 20260906074556 | 20 | 100 | 0.0 | 0.0 | 0.00 | 0.00 | 0.00 | 92 | 1015.7 |
| 20260906074055 | 20 | 100 | 0.0 | 0.0 | 0.00 | 0.00 | 0.00 | 92 | 1015.8 |
| 20260906073554 | 20 | 100 | 0.0 | 0.0 | 0.00 | 0.00 | 0.00 | 92 | 1015.8 |
| 20260906073054 | 20 | 99 | 0.0 | 0.0 | 0.00 | 0.00 | 0.00 | 92 | 1016.0 |
| 20260906072554 | 20 | 100 | 0.0 | 0.0 | 0.00 | 0.00 | 0.00 | 92 | 1016.0 |
| 20260906072054 | 20 | 100 | 0.0 | 0.0 | 0.00 | 0.00 | 0.00 | 92 | 1016.0 |
| 20260906071057 | 20 | 100 | 0.0 | 0.0 | 0.00 | 0.00 | 0.00 | 91 | 1016.0 |
| 20260906070554 | 20 | 100 | 0.0 | 0.0 | 0.00 | 0.00 | 0.00 | 91 | 1015.9 |
| 20260906070053 | 20 | 100 | 0.0 | 0.0 | 0.00 | 0.00 | 0.00 | 91 | 1016.0 |
| 20260906065553 | 20 | 100 | 0.0 | 0.0 | 0.00 | 0.00 | 0.00 | 91 | 1015.8 |
| 20260906065052 | 20 | 99 | 0.0 | 0.0 | 0.00 | 0.00 | 0.00 | 91 | 1015.7 |
| 20260906064552 | 20 | 100 | 0.0 | 0.0 | 0.00 | 0.00 | 0.00 | 91 | 1015.7 |
| 20260906064052 | 20 | 99 | 0.0 | 0.0 | 0.00 | 0.00 | 0.00 | 91 | 1015.8 |
| 20260906063551 | 20 | 99 | 0.0 | 0.0 | 0.00 | 0.00 | 0.00 | 91 | 1015.9 |
| 20260906063052 | 20 | 99 | 0.0 | 0.0 | 0.00 | 0.00 | 0.00 | 91 | 1016.0 |
| 20260906062551 | 20 | 100 | 0.0 | 0.0 | 0.00 | 0.00 | 0.00 | 91 | 1016.0 |
| 20260906062055 | 20 | 99 | 0.0 | 0.0 | 0.00 | 0.00 | 0.00 | 91 | 1016.1 |
| 20260906061049 | 21 | 100 | 0.0 | 0.0 | 0.00 | 0.00 | 0.00 | 91 | 1016.2 |
| 20260906060552 | 21 | 100 | 0.0 | 0.0 | 0.00 | 0.00 | 0.00 | 91 | 1016.2 |
| 20260906060049 | 21 | 99 | 0.0 | 0.0 | 0.00 | 0.00 | 0.00 | 91 | 1016.2 |
| 20260906055551 | 21 | 100 | 0.0 | 0.0 | 0.00 | 0.00 | 0.00 | 91 | 1016.2 |
| 20260906055048 | 21 | 99 | 0.0 | 0.0 | 0.00 | 0.00 | 0.00 | 91 | 1016.2 |
| 20260906054547 | 21 | 99 | 0.0 | 0.0 | 0.00 | 0.00 | 0.00 | 91 | 1016.2 |
| 20260906054049 | 21 | 100 | 0.0 | 0.0 | 0.00 | 0.00 | 0.00 | 91 | 1016.1 |
| 20260906053546 | 21 | 100 | 0.0 | 0.0 | 0.00 | 0.00 | 0.00 | 91 | 1016.0 |
| 20260906053045 | 21 | 100 | 0.0 | 0.0 | 0.00 | 0.00 | 0.00 | 91 | 1016.1 |
| 20260906052547 | 21 | 99 | 0.0 | 0.0 | 0.00 | 0.00 | 0.00 | 91 | 1016.1 |
| 20260906052045 | 21 | 99 | 0.0 | 0.0 | 0.00 | 0.00 | 0.00 | 91 | 1016.1 |
| 20260906051047 | 21 | 100 | 0.0 | 0.0 | 0.00 | 0.00 | 0.00 | 91 | 1015.9 |
| 20260906050545 | 21 | 100 | 0.0 | 0.0 | 0.00 | 0.00 | 0.00 | 91 | 1015.8 |
| 20260906050042 | 21 | 100 | 0.0 | 0.0 | 0.00 | 0.00 | 0.00 | 91 | 1015.8 |
| 20260906045543 | 21 | 99 | 0.0 | 0.0 | 0.00 | 0.00 | 0.00 | 91 | 1015.7 |
| 20260906045040 | 21 | 99 | 0.0 | 1.6 | 0.00 | 0.00 | 0.00 | 91 | 1015.5 |
| 20260906044543 | 21 | 99 | 0.0 | 3.2 | 0.00 | 0.00 | 0.00 | 90 | 1015.5 |
| 20260906044039 | 21 | 91 | 0.0 | 4.8 | 0.00 | 0.00 | 0.00 | 90 | 1015.3 |
| 20260906043537 | 21 | 83 | 0.0 | 4.8 | 0.00 | 0.00 | 0.00 | 90 | 1015.2 |
| 20260906043043 | 21 | 96 | 0.0 | 3.2 | 0.00 | 0.00 | 0.00 | 90 | 1015.1 |
| 20260906042537 | 21 | 83 | 0.0 | 3.2 | 0.00 | 0.00 | 0.00 | 90 | 1015.0 |
| 20260906042036 | 21 | 109 | 0.0 | 4.8 | 0.00 | 0.00 | 0.00 | 90 | 1015.0 |
| 20260906041035 | 22 | 89 | 0.0 | 3.2 | 0.00 | 0.00 | 0.00 | 90 | 1014.8 |
| 20260906040537 | 22 | 101 | 0.0 | 6.4 | 0.00 | 0.00 | 0.00 | 89 | 1014.8 |
| 20260906040036 | 22 | 93 | 0.0 | 6.4 | 0.00 | 0.00 | 0.00 | 89 | 1014.8 |
| 20260906035537 | 22 | 106 | 0.0 | 8.0 | 0.00 | 0.00 | 0.00 | 89 | 1014.8 |
| 20260906035032 | 22 | 88 | 0.0 | 8.0 | 0.00 | 0.00 | 0.00 | 89 | 1014.8 |
| 20260906034531 | 22 | 110 | 0.0 | 8.0 | 0.00 | 0.00 | 0.00 | 89 | 1014.8 |
| 20260906034032 | 22 | 84 | 1.6 | 11.3 | 0.00 | 0.00 | 0.00 | 89 | 1014.7 |
| 20260906033530 | 22 | 109 | 3.2 | 12.9 | 0.00 | 0.00 | 0.00 | 89 | 1014.6 |
| 20260906033030 | 22 | 93 | 4.8 | 12.9 | 0.00 | 0.00 | 0.00 | 89 | 1014.6 |
| 20260906032529 | 22 | 100 | 3.2 | 9.7 | 0.00 | 0.00 | 0.00 | 89 | 1014.5 |
| 20260906032029 | 22 | 346 | 1.6 | 11.3 | 0.00 | 0.00 | 0.00 | 90 | 1014.5 |
| 20260906031029 | 22 | 86 | 0.0 | 6.4 | 0.00 | 0.00 | 0.00 | 90 | 1014.4 |
| 20260906030529 | 22 | 94 | 1.6 | 3.2 | 0.00 | 0.00 | 0.00 | 90 | 1014.4 |
| 20260906030029 | 22 | 136 | 0.0 | 0.0 | 0.00 | 0.00 | 0.00 | 90 | 1014.3 |
| 20260906025532 | 22 | 136 | 0.0 | 0.0 | 0.00 | 0.00 | 0.00 | 90 | 1014.3 |
| 20260906025029 | 22 | 136 | 0.0 | 0.0 | 0.00 | 0.00 | 0.00 | 89 | 1014.3 |
| 20260906024528 | 22 | 136 | 0.0 | 0.0 | 0.00 | 0.00 | 0.00 | 89 | 1014.4 |
| 20260906024029 | 22 | 136 | 0.0 | 0.0 | 0.00 | 0.00 | 0.00 | 89 | 1014.4 |
| 20260906023526 | 22 | 136 | 0.0 | 0.0 | 0.00 | 0.00 | 0.00 | 89 | 1014.3 |
| 20260906023024 | 22 | 136 | 0.0 | 0.0 | 0.00 | 0.00 | 0.00 | 89 | 1014.2 |
| 20260906022524 | 22 | 136 | 0.0 | 0.0 | 0.00 | 0.00 | 0.00 | 89 | 1014.2 |
| 20260906022024 | 23 | 136 | 0.0 | 0.0 | 0.00 | 0.00 | 0.00 | 89 | 1014.1 |
| 20260906021022 | 23 | 136 | 0.0 | 0.0 | 0.00 | 0.00 | 0.00 | 88 | 1014.2 |
| 20260906020521 | 23 | 136 | 0.0 | 1.6 | 0.00 | 0.00 | 0.00 | 88 | 1014.1 |
| 20260906020030 | 23 | 136 | 0.0 | 1.6 | 0.00 | 0.00 | 0.00 | 88 | 1014.1 |
| 20260906015524 | 23 | 110 | 0.0 | 0.0 | 0.00 | 0.00 | 0.00 | 87 | 1014.2 |
| 20260906015019 | 23 | 110 | 0.0 | 0.0 | 0.00 | 0.00 | 0.00 | 87 | 1014.1 |
| 20260906014518 | 23 | 110 | 0.0 | 0.0 | 0.00 | 0.00 | 0.00 | 87 | 1014.0 |
| 20260906014019 | 23 | 110 | 0.0 | 0.0 | 0.00 | 0.00 | 0.00 | 86 | 1013.8 |
| 20260906013515 | 24 | 110 | 0.0 | 0.0 | 0.00 | 0.00 | 0.00 | 86 | 1013.6 |
| 20260906013015 | 24 | 99 | 0.0 | 0.0 | 0.00 | 0.00 | 0.00 | 85 | 1013.7 |
| 20260906012514 | 24 | 99 | 0.0 | 0.0 | 0.00 | 0.00 | 0.00 | 85 | 1013.6 |
| 20260906012013 | 24 | 99 | 0.0 | 0.0 | 0.00 | 0.00 | 0.00 | 85 | 1013.5 |
| 20260906011017 | 25 | 130 | 0.0 | 0.0 | 0.00 | 0.00 | 0.00 | 84 | 1013.5 |
| 20260906010513 | 25 | 130 | 0.0 | 1.6 | 0.00 | 0.00 | 0.00 | 84 | 1013.5 |
| 20260906010013 | 25 | 130 | 0.0 | 1.6 | 0.00 | 0.00 | 0.00 | 83 | 1013.4 |
| 20260906005512 | 25 | 61 | 0.0 | 1.6 | 0.00 | 0.00 | 0.00 | 83 | 1013.3 |
| 20260906005013 | 25 | 13 | 0.0 | 3.2 | 0.00 | 0.00 | 0.00 | 83 | 1013.3 |
| 20260906004513 | 26 | 12 | 0.0 | 4.8 | 0.00 | 0.00 | 0.00 | 83 | 1013.2 |
| 20260906004012 | 26 | 71 | 0.0 | 4.8 | 0.00 | 0.00 | 0.00 | 82 | 1013.3 |
| 20260906003512 | 26 | 79 | 0.0 | 3.2 | 0.00 | 0.00 | 0.00 | 82 | 1013.2 |
| 20260906003021 | 26 | 41 | 0.0 | 0.0 | 0.00 | 0.00 | 0.00 | 81 | 1013.2 |
| 20260906002511 | 26 | 41 | 0.0 | 0.0 | 0.00 | 0.00 | 0.00 | 80 | 1013.1 |
| 20260906002013 | 27 | 41 | 0.0 | 0.0 | 0.00 | 0.00 | 0.00 | 80 | 1013.1 |
| 20260906001012 | 27 | 148 | 0.0 | 4.8 | 0.00 | 0.00 | 0.00 | 78 | 1013.1 |
| 20260906000512 | 27 | 57 | 0.0 | 3.2 | 0.00 | 0.00 | 0.00 | 78 | 1013.0 |
| 20260906000013 | 27 | 316 | 0.0 | 1.6 | 0.00 | 0.00 | 0.00 | 77 | 1013.0 |
| 20260905235512 | 28 | 311 | 0.0 | 1.6 | 0.00 | 0.00 | 0.00 | 77 | 1013.0 |
| 20260905235014 | 28 | 71 | 0.0 | 1.6 | 0.00 | 0.00 | 0.00 | 76 | 1012.9 |
| 20260905234513 | 28 | 75 | 0.0 | 1.6 | 0.00 | 0.00 | 0.00 | 75 | 1012.9 |
| 20260905234017 | 28 | 89 | 0.0 | 1.6 | 0.00 | 0.00 | 0.00 | 75 | 1013.0 |
| 20260905233512 | 28 | 109 | 0.0 | 1.6 | 0.00 | 0.00 | 0.00 | 75 | 1012.8 |
| 20260905233013 | 29 | 352 | 0.0 | 1.6 | 0.00 | 0.00 | 0.00 | 75 | 1012.7 |
| 20260905232513 | 29 | 53 | 0.0 | 1.6 | 0.00 | 0.00 | 0.00 | 74 | 1012.6 |
| 20260905232012 | 29 | 72 | 0.0 | 0.0 | 0.00 | 0.00 | 0.00 | 74 | 1012.6 |
| 20260905231010 | 30 | 93 | 0.0 | 1.6 | 0.00 | 0.00 | 0.00 | 74 | 1012.4 |
| 20260905230511 | 30 | 91 | 0.0 | 1.6 | 0.00 | 0.00 | 0.00 | 74 | 1012.5 |
| 20260905230012 | 30 | 60 | 0.0 | 1.6 | 0.00 | 0.00 | 0.00 | 73 | 1012.4 |
| 20260905225511 | 30 | 43 | 0.0 | 3.2 | 0.00 | 0.00 | 0.00 | 73 | 1012.4 |
| 20260905225010 | 30 | 77 | 0.0 | 3.2 | 0.00 | 0.00 | 0.00 | 72 | 1012.5 |
| 20260905224511 | 31 | 19 | 0.0 | 0.0 | 0.00 | 0.00 | 0.00 | 72 | 1012.5 |
| 20260905224010 | 31 | 324 | 0.0 | 1.6 | 0.00 | 0.00 | 0.00 | 71 | 1012.6 |
| 20260905223510 | 31 | 318 | 0.0 | 1.6 | 0.00 | 0.00 | 0.00 | 71 | 1012.5 |
| 20260905223029 | 31 | 327 | 0.0 | 1.6 | 0.00 | 0.00 | 0.00 | 70 | 1012.5 |
| 20260905222510 | 32 | 327 | 0.0 | 1.6 | 0.00 | 0.00 | 0.00 | 69 | 1012.4 |
| 20260905222013 | 32 | 4 | 0.0 | 3.2 | 0.00 | 0.00 | 0.00 | 67 | 1012.5 |
| 20260905221012 | 33 | 25 | 0.0 | 1.6 | 0.00 | 0.00 | 0.00 | 66 | 1012.3 |
| 20260905220510 | 33 | 332 | 0.0 | 1.6 | 0.00 | 0.00 | 0.00 | 66 | 1012.2 |
| 20260905220009 | 33 | 330 | 0.0 | 0.0 | 0.00 | 0.00 | 0.00 | 66 | 1012.2 |
| 20260905215513 | 33 | 340 | 0.0 | 0.0 | 0.00 | 0.00 | 0.00 | 66 | 1012.2 |
| 20260905215009 | 34 | 340 | 0.0 | 0.0 | 0.00 | 0.00 | 0.00 | 64 | 1012.1 |
| 20260905214510 | 35 | 340 | 0.0 | 0.0 | 0.00 | 0.00 | 0.00 | 63 | 1012.1 |
| 20260905214009 | 35 | 340 | 0.0 | 0.0 | 0.00 | 0.00 | 0.00 | 62 | 1012.1 |
| 20260905213508 | 35 | 349 | 0.0 | 0.0 | 0.00 | 0.00 | 0.00 | 63 | 1012.1 |
| 20260905213009 | 35 | 333 | 0.0 | 0.0 | 0.00 | 0.00 | 0.00 | 64 | 1012.1 |
| 20260905212509 | 34 | 333 | 0.0 | 1.6 | 0.00 | 0.00 | 0.00 | 63 | 1012.1 |
| 20260905212010 | 34 | 333 | 0.0 | 1.6 | 0.00 | 0.00 | 0.00 | 62 | 1012.1 |
| 20260905211008 | 35 | 345 | 0.0 | 0.0 | 0.00 | 0.00 | 0.00 | 61 | 1012.0 |
| 20260905210508 | 35 | 345 | 0.0 | 0.0 | 0.00 | 0.00 | 0.00 | 60 | 1012.1 |
| 20260905210008 | 35 | 336 | 0.0 | 0.0 | 0.00 | 0.00 | 0.00 | 61 | 1012.0 |
| 20260905205508 | 35 | 336 | 0.0 | 0.0 | 0.00 | 0.00 | 0.00 | 62 | 1012.0 |
| 20260905205008 | 35 | 336 | 0.0 | 0.0 | 0.00 | 0.00 | 0.00 | 62 | 1012.1 |
| 20260905204511 | 35 | 336 | 0.0 | 1.6 | 0.00 | 0.00 | 0.00 | 64 | 1012.1 |
| 20260905204007 | 34 | 336 | 0.0 | 1.6 | 0.00 | 0.00 | 0.00 | 64 | 1012.2 |
| 20260905203508 | 34 | 338 | 0.0 | 0.0 | 0.00 | 0.00 | 0.00 | 63 | 1012.2 |
| 20260905203008 | 35 | 337 | 0.0 | 1.6 | 0.00 | 0.00 | 0.00 | 62 | 1012.3 |
| 20260905202507 | 35 | 347 | 0.0 | 1.6 | 0.00 | 0.00 | 0.00 | 63 | 1012.4 |
| 20260905202007 | 35 | 347 | 0.0 | 0.0 | 0.00 | 0.00 | 0.00 | 60 | 1012.3 |
| 20260905201007 | 35 | 332 | 0.0 | 0.0 | 0.00 | 0.00 | 0.00 | 62 | 1012.4 |
| 20260905200509 | 35 | 338 | 0.0 | 1.6 | 0.00 | 0.00 | 0.00 | 63 | 1012.5 |
| 20260905200007 | 35 | 337 | 0.0 | 0.0 | 0.00 | 0.00 | 0.00 | 62 | 1012.4 |
| 20260905195510 | 34 | 337 | 0.0 | 1.6 | 0.00 | 0.00 | 0.00 | 66 | 1012.4 |
| 20260905195006 | 34 | 337 | 0.0 | 1.6 | 0.00 | 0.00 | 0.00 | 63 | 1012.4 |
| 20260905194506 | 34 | 335 | 0.0 | 1.6 | 0.00 | 0.00 | 0.00 | 64 | 1012.3 |
| 20260905194006 | 34 | 336 | 0.0 | 1.6 | 0.00 | 0.00 | 0.00 | 65 | 1012.3 |
| 20260905193504 | 34 | 335 | 0.0 | 0.0 | 0.00 | 0.00 | 0.00 | 65 | 1012.5 |
| 20260905193006 | 34 | 336 | 0.0 | 0.0 | 0.00 | 0.00 | 0.00 | 65 | 1012.5 |
| 20260905192505 | 34 | 336 | 0.0 | 0.0 | 0.00 | 0.00 | 0.00 | 63 | 1012.6 |
| 20260905192005 | 34 | 336 | 0.0 | 0.0 | 0.00 | 0.00 | 0.00 | 64 | 1012.6 |
| 20260905191005 | 35 | 338 | 0.0 | 0.0 | 0.00 | 0.00 | 0.00 | 62 | 1012.6 |
| 20260905190506 | 35 | 338 | 0.0 | 0.0 | 0.00 | 0.00 | 0.00 | 64 | 1012.6 |
| 20260905190005 | 34 | 338 | 0.0 | 0.0 | 0.00 | 0.00 | 0.00 | 65 | 1012.6 |
| 20260905185504 | 34 | 338 | 0.0 | 1.6 | 0.00 | 0.00 | 0.00 | 65 | 1012.6 |
| 20260905185004 | 34 | 338 | 0.0 | 1.6 | 0.00 | 0.00 | 0.00 | 64 | 1012.7 |
| 20260905184505 | 34 | 338 | 0.0 | 1.6 | 0.00 | 0.00 | 0.00 | 63 | 1012.9 |
| 20260905184004 | 34 | 338 | 0.0 | 1.6 | 0.00 | 0.00 | 0.00 | 64 | 1012.9 |
| 20260905183504 | 34 | 338 | 0.0 | 0.0 | 0.00 | 0.00 | 0.00 | 64 | 1012.9 |
| 20260905183004 | 35 | 338 | 0.0 | 1.6 | 0.00 | 0.00 | 0.00 | 62 | 1012.9 |
| 20260905182504 | 35 | 338 | 0.0 | 1.6 | 0.00 | 0.00 | 0.00 | 62 | 1012.9 |
| 20260905182004 | 35 | 338 | 0.0 | 1.6 | 0.00 | 0.00 | 0.00 | 61 | 1013.0 |
| 20260905181002 | 35 | 338 | 0.0 | 0.0 | 0.00 | 0.00 | 0.00 | 64 | 1013.0 |
| 20260905180502 | 35 | 338 | 0.0 | 3.2 | 0.00 | 0.00 | 0.00 | 60 | 1013.0 |
| 20260905180002 | 35 | 338 | 0.0 | 3.2 | 0.00 | 0.00 | 0.00 | 62 | 1013.0 |
| 20260905175502 | 35 | 326 | 0.0 | 3.2 | 0.00 | 0.00 | 0.00 | 62 | 1013.0 |
| 20260905175000 | 35 | 320 | 0.0 | 3.2 | 0.00 | 0.00 | 0.00 | 61 | 1013.0 |
| 20260905174500 | 35 | 354 | 0.0 | 1.6 | 0.00 | 0.00 | 0.00 | 60 | 1013.1 |
| 20260905174101 | 35 | 84 | 0.0 | 8.0 | 0.00 | 0.00 | 0.00 | 62 | 1013.1 |
| 20260905173601 | 35 | 86 | 0.0 | 8.0 | 0.00 | 0.00 | 0.00 | 61 | 1013.2 |
| 20260905173059 | 35 | 96 | 1.6 | 6.4 | 0.00 | 0.00 | 0.00 | 61 | 1013.2 |
| 20260905172600 | 35 | 28 | 0.0 | 0.0 | 0.00 | 0.00 | 0.00 | 62 | 1013.2 |
| 20260905172058 | 35 | 28 | 0.0 | 4.8 | 0.00 | 0.00 | 0.00 | 64 | 1013.2 |
| 20260905171657 | 35 | 105 | 0.0 | 3.2 | 0.00 | 0.00 | 0.00 | 64 | 1013.2 |
| 20260905171056 | 35 | 79 | 0.0 | 1.6 | 0.00 | 0.00 | 0.00 | 62 | 1013.3 |
| 20260905170556 | 35 | 27 | 0.0 | 1.6 | 0.00 | 0.00 | 0.00 | 61 | 1013.3 |
| 20260905170059 | 35 | 27 | 0.0 | 1.6 | 0.00 | 0.00 | 0.00 | 62 | 1013.4 |
| 20260905165554 | 35 | 66 | 0.0 | 1.6 | 0.00 | 0.00 | 0.00 | 64 | 1013.4 |
| 20260905165056 | 35 | 93 | 0.0 | 1.6 | 0.00 | 0.00 | 0.00 | 65 | 1013.4 |
| 20260905164552 | 35 | 63 | 0.0 | 1.6 | 0.00 | 0.00 | 0.00 | 64 | 1013.5 |
| 20260905164051 | 34 | 32 | 0.0 | 1.6 | 0.00 | 0.00 | 0.00 | 64 | 1013.5 |
| 20260905163550 | 34 | 346 | 0.0 | 1.6 | 0.00 | 0.00 | 0.00 | 66 | 1013.5 |
| 20260905163048 | 33 | 346 | 0.0 | 1.6 | 0.00 | 0.00 | 0.00 | 66 | 1013.5 |
| 20260905162546 | 33 | 346 | 0.0 | 1.6 | 0.00 | 0.00 | 0.00 | 65 | 1013.5 |
| 20260905162044 | 33 | 25 | 0.0 | 1.6 | 0.00 | 0.00 | 0.00 | 66 | 1013.5 |
| 20260905161644 | 33 | 60 | 0.0 | 1.6 | 0.00 | 0.00 | 0.00 | 68 | 1013.6 |
| 20260905161044 | 33 | 62 | 0.0 | 1.6 | 0.00 | 0.00 | 0.00 | 68 | 1013.6 |
| 20260905160544 | 33 | 63 | 0.0 | 1.6 | 0.00 | 0.00 | 0.00 | 68 | 1013.6 |
| 20260905160047 | 32 | 331 | 0.0 | 1.6 | 0.00 | 0.00 | 0.00 | 69 | 1013.6 |
| 20260905155539 | 32 | 331 | 0.0 | 1.6 | 0.00 | 0.00 | 0.00 | 71 | 1013.5 |
| 20260905155039 | 32 | 330 | 0.0 | 3.2 | 0.00 | 0.00 | 0.00 | 70 | 1013.5 |
| 20260905154551 | 32 | 62 | 0.0 | 3.2 | 0.00 | 0.00 | 0.00 | 69 | 1013.6 |
| 20260905154038 | 32 | 320 | 0.0 | 0.0 | 0.00 | 0.00 | 0.00 | 69 | 1013.5 |
| 20260905153538 | 32 | 320 | 0.0 | 0.0 | 0.00 | 0.00 | 0.00 | 70 | 1013.5 |
| 20260905153036 | 32 | 319 | 0.0 | 0.0 | 0.00 | 0.00 | 0.00 | 69 | 1013.4 |
| 20260905152535 | 32 | 319 | 0.0 | 0.0 | 0.00 | 0.00 | 0.00 | 71 | 1013.3 |
| 20260905152033 | 32 | 319 | 0.0 | 0.0 | 0.00 | 0.00 | 0.00 | 71 | 1013.4 |
| 20260905151632 | 31 | 319 | 0.0 | 0.0 | 0.00 | 0.00 | 0.00 | 72 | 1013.3 |
| 20260905151032 | 31 | 319 | 0.0 | 0.0 | 0.00 | 0.00 | 0.00 | 72 | 1013.3 |
| 20260905150530 | 31 | 319 | 0.0 | 0.0 | 0.00 | 0.00 | 0.00 | 72 | 1013.2 |
| 20260905150029 | 30 | 319 | 0.0 | 1.6 | 0.00 | 0.00 | 0.00 | 74 | 1013.2 |
| 20260905145528 | 30 | 319 | 0.0 | 3.2 | 0.00 | 0.00 | 0.00 | 73 | 1013.2 |
| 20260905145028 | 30 | 319 | 0.0 | 4.8 | 0.00 | 0.00 | 0.00 | 73 | 1013.2 |
| 20260905144538 | 30 | 319 | 0.0 | 4.8 | 0.00 | 0.00 | 0.00 | 71 | 1013.2 |
| 20260905144026 | 30 | 316 | 0.0 | 3.2 | 0.00 | 0.00 | 0.00 | 73 | 1013.1 |
| 20260905143525 | 30 | 316 | 0.0 | 3.2 | 0.00 | 0.00 | 0.00 | 72 | 1013.0 |
| 20260905143025 | 30 | 271 | 0.0 | 6.4 | 0.00 | 0.00 | 0.00 | 74 | 1013.0 |
| 20260905142525 | 30 | 311 | 0.0 | 6.4 | 0.00 | 0.00 | 0.00 | 71 | 1013.0 |
| 20260905142028 | 30 | 263 | 0.0 | 1.6 | 0.00 | 0.00 | 0.00 | 73 | 1012.9 |
| 20260905141624 | 30 | 262 | 0.0 | 1.6 | 0.00 | 0.00 | 0.00 | 73 | 1013.0 |
| 20260905141024 | 30 | 232 | 0.0 | 3.2 | 0.00 | 0.00 | 0.00 | 73 | 1012.9 |
| 20260905140524 | 30 | 323 | 0.0 | 4.8 | 0.00 | 0.00 | 0.00 | 73 | 1012.9 |
| 20260905140030 | 30 | 322 | 0.0 | 4.8 | 0.00 | 0.00 | 0.00 | 73 | 1012.9 |
| 20260905135523 | 30 | 276 | 0.0 | 0.0 | 0.00 | 0.00 | 0.00 | 75 | 1013.0 |
| 20260905135021 | 29 | 276 | 0.0 | 1.6 | 0.00 | 0.00 | 0.00 | 75 | 1012.8 |
| 20260905134521 | 29 | 260 | 0.0 | 1.6 | 0.00 | 0.00 | 0.00 | 75 | 1012.9 |
| 20260905134021 | 29 | 260 | 0.0 | 0.0 | 0.00 | 0.00 | 0.00 | 76 | 1012.9 |
| 20260905133524 | 29 | 260 | 0.0 | 0.0 | 0.00 | 0.00 | 0.00 | 76 | 1012.7 |
| 20260905133020 | 29 | 260 | 0.0 | 0.0 | 0.00 | 0.00 | 0.00 | 76 | 1012.7 |
| 20260905132520 | 29 | 260 | 0.0 | 0.0 | 0.00 | 0.00 | 0.00 | 77 | 1012.8 |
| 20260905132023 | 29 | 260 | 0.0 | 0.0 | 0.00 | 0.00 | 0.00 | 76 | 1012.8 |
| 20260905131621 | 29 | 260 | 0.0 | 0.0 | 0.00 | 0.00 | 0.00 | 77 | 1012.9 |
| 20260905131019 | 29 | 260 | 0.0 | 0.0 | 0.00 | 0.00 | 0.00 | 78 | 1012.9 |
| 20260905130520 | 29 | 260 | 0.0 | 0.0 | 0.00 | 0.00 | 0.00 | 79 | 1012.9 |
| 20260905130018 | 28 | 260 | 0.0 | 0.0 | 0.00 | 0.00 | 0.00 | 81 | 1012.9 |
| 20260905125515 | 28 | 260 | 0.0 | 0.0 | 0.00 | 0.00 | 0.00 | 82 | 1012.7 |
| 20260905125013 | 27 | 260 | 0.0 | 0.0 | 0.00 | 0.00 | 0.00 | 83 | 1012.5 |
| 20260905124512 | 27 | 263 | 0.0 | 0.0 | 0.00 | 0.00 | 0.00 | 84 | 1012.5 |
| 20260905124010 | 26 | 263 | 0.0 | 0.0 | 0.00 | 0.00 | 0.00 | 85 | 1012.5 |
| 20260905123509 | 26 | 263 | 0.0 | 0.0 | 0.00 | 0.00 | 0.00 | 85 | 1012.6 |